Oscoda, MI

12:02 AM EST on December 10, 2019 (GMT -0500)
Oscoda-Wurtsmith

Weather History for KOSC - October, 2019

Change the Weather History Date:

Saturday, October 12, 2019

  Actual Average Record
Temperature  
Mean Temperature 43 °F -  
Max Temperature 50 °F 57 °F 77 °F (2008)
Min Temperature 36 °F 39 °F 27 °F (2014)
Degree Days  
Heating Degree Days 22    
Moisture  
Dew Point 36 °F    
Average Humidity 72    
Maximum Humidity 97    
Minimum Humidity 51    
Precipitation  
Precipitation 0.08 in - - ()
Sea Level Pressure  
Sea Level Pressure 29.89 in    
Wind  
Wind Speed 12 mph (SW)    
Max Wind Speed 18 mph    
Max Gust Speed 28 mph    
Visibility 10 miles    
Events Rain    
Averages and records for this station are not official NWS values.
T = Trace of Precipitation, MM = Missing Value Source: NWS Daily Summary

Daily Weather History Graph

Daily Weather History Graph

Search for Another Location

Airport or City:

Astronomy

Oct. 12, 2019 Rise Set
Actual Time 7:44 AM EDT 6:54 PM EDT
Civil Twilight 7:15 AM EDT 7:23 PM EDT
Nautical Twilight 6:41 AM EDT 7:57 PM EDT
Astronomical Twilight 6:07 AM EDT 8:31 PM EDT
Moon 6:54 PM EDT (10/12) 6:14 AM EDT (10/12)
Length of Visible Light 12h 08m
Length of Day
11h 10m
Waxing Gibbous, 99% of the Moon is Illuminated
Oct 12
Waxing Gibbous
Oct 13
Full
Oct 21
Last Quarter
Oct 27
New
Nov 4
First Quarter

Hourly Weather History & Observations

Time (EDT) Temp. Windchill Dew Point Humidity Pressure Visibility Wind Dir Wind Speed Gust Speed Precip Events Conditions
12:17 AM 50.7 °F - 50.0 °F 97% 29.83 in 4.0 mi West 15.0 mph 18.4 mph 0.01 in Rain Light Rain
12:35 AM 50.2 °F - 48.9 °F 95% 29.84 in 7.0 mi WSW 12.7 mph - 0.01 in   Drizzle
12:55 AM 49.1 °F - 47.8 °F 95% 29.84 in 7.0 mi WSW 11.5 mph - 0.02 in Rain Light Rain
1:15 AM 48.6 °F - 47.5 °F 96% 29.85 in 10.0 mi WSW 11.5 mph - 0.01 in Rain Rain
1:19 AM 48.6 °F - 47.5 °F 96% 29.85 in 10.0 mi WSW 12.7 mph - 0.01 in Rain Rain
1:38 AM 48.0 °F - 46.4 °F 94% 29.85 in 4.0 mi West 12.7 mph 18.4 mph 0.04 in Rain Rain
1:56 AM 47.5 °F - 45.7 °F 93% 29.85 in 10.0 mi West 10.4 mph - 0.04 in Rain Light Rain
2:15 AM 46.8 °F - 45.0 °F 93% 29.85 in 4.0 mi West 10.4 mph - 0.02 in Rain Light Rain
2:35 AM 46.4 °F 41.5 °F 44.8 °F 94% 29.86 in 10.0 mi West 10.4 mph - 0.02 in Rain Light Rain
2:36 AM 46.4 °F 41.9 °F 44.8 °F 94% 29.86 in 10.0 mi West 9.2 mph - 0.02 in Rain Light Rain
2:59 AM 46.4 °F 40.4 °F 43.9 °F 91% 29.87 in 10.0 mi WSW 13.8 mph 17.3 mph 0.02 in   Overcast
3:17 AM 45.5 °F 39.9 °F 42.6 °F 90% 29.88 in 10.0 mi West 11.5 mph - N/A   Overcast
3:35 AM 45.0 °F 38.9 °F 41.9 °F 89% 29.88 in 10.0 mi West 12.7 mph - N/A   Mostly Cloudy
3:55 AM 44.6 °F 39.7 °F 41.9 °F 90% 29.87 in 10.0 mi West 9.2 mph - N/A   Mostly Cloudy
3:56 AM 44.6 °F 39.7 °F 41.9 °F 90% 29.88 in 10.0 mi West 9.2 mph - N/A   Overcast
4:15 AM 44.2 °F 39.7 °F 41.4 °F 90% 29.88 in 10.0 mi West 8.1 mph - N/A   Overcast
4:20 AM 44.1 °F 40.8 °F 41.0 °F 89% 29.89 in 10.0 mi West 5.8 mph - N/A   Overcast
4:38 AM 43.7 °F 37.3 °F 40.1 °F 87% 29.90 in 10.0 mi WSW 12.7 mph - N/A   Overcast
4:56 AM 43.2 °F 37.4 °F 39.7 °F 88% 29.90 in 10.0 mi WSW 10.4 mph - N/A   Overcast
5:15 AM 42.8 °F 36.6 °F 38.3 °F 84% 29.91 in 10.0 mi WSW 11.5 mph - N/A   Overcast
5:16 AM 42.8 °F 36.6 °F 37.9 °F 83% 29.91 in 10.0 mi SW 11.5 mph - N/A   Overcast
5:35 AM 41.9 °F 36.3 °F 36.7 °F 82% 29.91 in 10.0 mi WSW 9.2 mph 16.1 mph N/A   Overcast
5:59 AM 38.7 °F 32.4 °F 33.8 °F 83% 29.91 in 10.0 mi WSW 9.2 mph - N/A   Scattered Clouds
6:17 AM 36.5 °F 31.0 °F 33.1 °F 87% 29.91 in 10.0 mi SW 6.9 mph - N/A   Scattered Clouds
6:35 AM 38.1 °F 35.7 °F 35.1 °F 89% 29.91 in 10.0 mi SSW 3.5 mph - N/A   Mostly Cloudy
6:36 AM 38.3 °F 34.8 °F 35.2 °F 89% 29.91 in 10.0 mi SSW 4.6 mph - N/A   Mostly Cloudy
6:55 AM 39.6 °F 34.7 °F 35.6 °F 86% 29.91 in 10.0 mi SSW 6.9 mph - N/A   Overcast
7:15 AM 39.7 °F 34.9 °F 35.6 °F 85% 29.91 in 10.0 mi SSW 6.9 mph - N/A   Overcast
7:38 AM 40.1 °F 35.3 °F 36.0 °F 85% 29.92 in 10.0 mi SSW 6.9 mph - N/A   Overcast
7:56 AM 40.5 °F 35.1 °F 36.0 °F 84% 29.92 in 10.0 mi SSW 8.1 mph - N/A   Overcast
8:15 AM 41.0 °F 35.8 °F 36.1 °F 83% 29.93 in 10.0 mi SW 8.1 mph - N/A   Overcast
8:35 AM 41.0 °F 35.8 °F 36.5 °F 84% 29.93 in 10.0 mi SW 8.1 mph - N/A   Overcast
8:59 AM 41.5 °F 35.4 °F 36.7 °F 83% 29.93 in 10.0 mi SW 10.4 mph - N/A   Overcast
9:16 AM 41.9 °F 36.3 °F 37.0 °F 83% 29.93 in 10.0 mi SSW 9.2 mph - N/A   Overcast
9:35 AM 42.4 °F 37.0 °F 37.4 °F 82% 29.93 in 10.0 mi SSW 9.2 mph - N/A   Overcast
9:36 AM 42.4 °F 37.0 °F 37.2 °F 82% 29.93 in 10.0 mi SSW 9.2 mph - N/A   Overcast
9:55 AM 42.8 °F 37.5 °F 36.9 °F 80% 29.93 in 10.0 mi SSW 9.2 mph - N/A   Overcast
9:56 AM 42.8 °F 37.5 °F 36.9 °F 80% 29.93 in 10.0 mi SSW 9.2 mph - N/A   Overcast
10:15 AM 43.0 °F 37.2 °F 35.8 °F 76% 29.93 in 10.0 mi SW 10.4 mph 17.3 mph N/A   Overcast
10:38 AM 43.2 °F 37.0 °F 35.8 °F 75% 29.93 in 10.0 mi SW 11.5 mph - N/A   Overcast
10:56 AM 43.9 °F 37.5 °F 35.6 °F 73% 29.93 in 10.0 mi SSW 12.7 mph - N/A   Overcast
11:15 AM 44.1 °F 37.7 °F 35.6 °F 72% 29.93 in 10.0 mi SSW 12.7 mph - N/A   Overcast
11:35 AM 44.1 °F 37.7 °F 35.1 °F 71% 29.93 in 10.0 mi SW 12.7 mph - N/A   Overcast
11:36 AM 44.1 °F 37.7 °F 35.1 °F 71% 29.93 in 10.0 mi SW 12.7 mph - N/A   Overcast
11:59 AM 44.8 °F 38.3 °F 35.2 °F 69% 29.93 in 10.0 mi SW 13.8 mph 19.6 mph N/A   Overcast
12:17 PM 45.0 °F 38.5 °F 34.7 °F 67% 29.93 in 10.0 mi SSW 13.8 mph - N/A   Overcast
12:35 PM 45.7 °F 39.5 °F 34.2 °F 64% 29.92 in 10.0 mi SSW 13.8 mph 20.7 mph N/A   Overcast
12:55 PM 45.7 °F 40.2 °F 34.2 °F 64% 29.93 in 10.0 mi SW 11.5 mph 18.4 mph N/A   Overcast
12:56 PM 45.7 °F 38.8 °F 34.0 °F 64% 29.92 in 10.0 mi SW 16.1 mph 19.6 mph N/A   Overcast
1:15 PM 45.1 °F 38.1 °F 33.4 °F 64% 29.92 in 10.0 mi SW 16.1 mph 25.3 mph N/A   Overcast
1:20 PM 45.5 °F 39.6 °F 34.0 °F 64% 29.92 in 10.0 mi SSW 12.7 mph 24.2 mph N/A   Overcast
1:38 PM 45.9 °F 38.8 °F 33.8 °F 63% 29.91 in 10.0 mi SSW 17.3 mph - N/A   Overcast
1:56 PM 46.4 °F 40.7 °F 34.0 °F 62% 29.91 in 10.0 mi SSW 12.7 mph 18.4 mph N/A   Overcast
2:15 PM 46.4 °F 39.8 °F 33.4 °F 61% 29.91 in 10.0 mi SSW 16.1 mph 23.0 mph N/A   Overcast
2:35 PM 47.3 °F - 33.3 °F 58% 29.90 in 10.0 mi SSW 13.8 mph 18.4 mph N/A   Overcast
2:36 PM 47.3 °F - 33.3 °F 58% 29.90 in 10.0 mi SSW 12.7 mph 18.4 mph N/A   Overcast
2:59 PM 47.5 °F - 33.4 °F 58% 29.90 in 10.0 mi SSW 15.0 mph 19.6 mph N/A   Overcast
3:17 PM 48.2 °F - 32.7 °F 55% 29.89 in 10.0 mi SSW 15.0 mph 19.6 mph N/A   Overcast
3:35 PM 49.1 °F - 33.4 °F 55% 29.89 in 10.0 mi SSW 13.8 mph - N/A   Mostly Cloudy
3:36 PM 48.9 °F - 33.3 °F 55% 29.89 in 10.0 mi SSW 12.7 mph - N/A   Mostly Cloudy
3:55 PM 50.0 °F - 32.9 °F 52% 29.88 in 10.0 mi South 17.3 mph 24.2 mph N/A   Mostly Cloudy
4:15 PM 48.9 °F - 32.2 °F 52% 29.88 in 10.0 mi SSW 10.4 mph 21.9 mph N/A   Mostly Cloudy
4:38 PM 49.8 °F - 32.5 °F 51% 29.88 in 10.0 mi SSW 15.0 mph 25.3 mph N/A   Mostly Cloudy
4:56 PM 49.5 °F - 31.8 °F 51% 29.87 in 10.0 mi SSW 18.4 mph 25.3 mph N/A   Mostly Cloudy
5:15 PM 48.9 °F - 31.8 °F 52% 29.86 in 10.0 mi SSW 16.1 mph 27.6 mph N/A   Scattered Clouds
5:35 PM 48.6 °F - 31.8 °F 52% 29.87 in 10.0 mi SSW 17.3 mph 23.0 mph N/A   Scattered Clouds
5:59 PM 48.4 °F - 31.8 °F 53% 29.88 in 10.0 mi SSW 12.7 mph 27.6 mph N/A   Scattered Clouds
6:17 PM 47.3 °F - 31.6 °F 55% 29.89 in 10.0 mi SSW 17.3 mph 23.0 mph N/A   Scattered Clouds
6:35 PM 46.6 °F - 31.3 °F 55% 29.89 in 10.0 mi SSW 13.8 mph - N/A   Clear
6:55 PM 46.0 °F 40.6 °F 31.5 °F 57% 29.89 in 10.0 mi SSW 11.5 mph 17.3 mph N/A   Clear
7:15 PM 45.5 °F 40.8 °F 31.6 °F 58% 29.89 in 10.0 mi SSW 9.2 mph - N/A   Clear
7:38 PM 45.0 °F 41.2 °F 31.3 °F 59% 29.89 in 10.0 mi SSW 6.9 mph - N/A   Clear
7:56 PM 44.1 °F 40.1 °F 31.8 °F 62% 29.90 in 10.0 mi SSW 6.9 mph - N/A   Mostly Cloudy
8:15 PM 45.1 °F 40.8 °F 31.1 °F 58% 29.90 in 10.0 mi SSW 8.1 mph - N/A   Scattered Clouds
8:16 PM 45.1 °F 40.3 °F 31.1 °F 58% 29.90 in 10.0 mi SSW 9.2 mph - N/A   Scattered Clouds
8:35 PM 45.1 °F 42.0 °F 31.1 °F 58% 29.89 in 10.0 mi SSW 5.8 mph - N/A   Clear
8:36 PM 45.1 °F 42.0 °F 31.3 °F 58% 29.89 in 10.0 mi SSW 5.8 mph - N/A   Clear
8:59 PM 45.9 °F 41.7 °F 31.1 °F 56% 29.89 in 10.0 mi SSW 8.1 mph - N/A   Clear
9:17 PM 46.4 °F 41.9 °F 31.5 °F 56% 29.88 in 10.0 mi South 9.2 mph - N/A   Clear
9:35 PM 46.9 °F - 32.0 °F 56% 29.88 in 10.0 mi South 8.1 mph - N/A   Clear
9:36 PM 46.9 °F - 32.0 °F 56% 29.88 in 10.0 mi SSW 6.9 mph - N/A   Clear
9:55 PM 48.0 °F - 33.1 °F 56% 29.88 in 10.0 mi South 12.7 mph 16.1 mph N/A   Scattered Clouds
9:56 PM 48.2 °F - 33.1 °F 56% 29.88 in 10.0 mi South 11.5 mph 16.1 mph N/A   Scattered Clouds
10:15 PM 48.4 °F - 32.9 °F 55% 29.88 in 10.0 mi South 13.8 mph 20.7 mph N/A   Scattered Clouds
10:20 PM 48.4 °F - 33.3 °F 56% 29.88 in 10.0 mi South 11.5 mph 20.7 mph N/A   Scattered Clouds
10:38 PM 48.2 °F - 33.6 °F 57% 29.87 in 10.0 mi South 13.8 mph - N/A   Clear
10:56 PM 48.2 °F - 34.0 °F 58% 29.86 in 10.0 mi South 12.7 mph 20.7 mph N/A   Clear
11:15 PM 48.2 °F - 33.8 °F 58% 29.86 in 10.0 mi South 15.0 mph 21.9 mph N/A   Clear
11:35 PM 48.2 °F - 34.2 °F 58% 29.85 in 10.0 mi South 15.0 mph 20.7 mph N/A   Scattered Clouds
11:59 PM 48.9 °F - 35.6 °F 60% 29.85 in 10.0 mi South 12.7 mph 19.6 mph N/A   Overcast